DW2849 Weather Reports


time (UTC)temp
C
wind
direction
speed
KPH
gust
KPH
rain 1hr
cm
rain 24hr
cm
rain mn
cm
humidity
%
barometer
mb
20260504150532 10 332 0.0 6.4 0.00 0.00 0.00 83 1014.0
20260504141249 8 270 1.6 6.4 0.00 0.00 0.00 85 1013.8
20260504140552 8 267 3.2 6.4 0.00 0.00 0.00 85 1013.8
20260504130758 8 257 1.6 6.4 0.00 0.00 0.00 85 1013.5
20260504120115 9 315 0.0 3.2 0.00 0.00 0.00 85 1013.3
20260504110323 9 270 3.2 4.8 0.00 0.00 0.00 85 1013.1
20260504100149 9 273 3.2 6.4 0.00 0.00 0.00 85 1013.1
20260504081814 8 222 1.6 4.8 0.00 0.00 0.00 85 1013.5
20260504081113 8 205 3.2 3.2 0.00 0.00 0.00 85 1013.4
20260504080413 8 212 3.2 3.2 0.00 0.00 0.00 85 1013.5
20260504050657 10 225 1.6 3.2 0.00 0.00 0.00 85 1013.6
20260504045957 10 230 1.6 6.4 0.00 0.00 0.00 85 1013.5
20260504045258 10 270 3.2 6.4 0.00 0.00 0.00 85 1013.5
20260504044557 10 258 3.2 4.8 0.00 0.00 0.00 85 1013.3
20260504043706 10 228 1.6 8.0 0.00 0.00 0.00 85 1013.1
20260504043005 9 265 3.2 4.8 0.00 0.00 0.00 85 1013.1
20260504042305 9 240 1.6 3.2 0.00 0.00 0.00 85 1013.0
20260504041606 9 225 1.6 3.2 0.00 0.00 0.00 85 1013.0
20260504040905 9 260 1.6 3.2 0.00 0.00 0.00 85 1012.9
20260504040221 9 225 1.6 4.8 0.00 0.00 0.00 85 1012.9
20260504035505 9 265 3.2 4.8 0.00 0.00 0.00 85 1012.9
20260504034805 9 220 1.6 4.8 0.00 0.00 0.00 85 1012.8
20260504034106 9 228 1.6 4.8 0.00 0.00 0.00 85 1012.7
20260504033212 10 180 1.6 3.2 0.00 0.00 0.00 85 1012.7
20260504032512 10 202 1.6 3.2 0.00 0.00 0.00 85 1012.5
20260504031813 10 180 1.6 3.2 0.00 0.00 0.00 85 1012.5
20260504031113 10 202 1.6 3.2 0.00 0.00 0.00 84 1012.5
20260504030221 10 180 1.6 3.2 0.00 0.00 0.00 84 1012.5
20260504025521 10 228 3.2 3.2 0.00 0.00 0.00 84 1012.3
20260504024821 10 225 1.6 4.8 0.00 0.00 0.00 84 1012.3
20260504024121 10 222 3.2 4.8 0.00 0.00 0.00 83 1012.3
20260504023421 11 232 1.6 3.2 0.00 0.00 0.00 83 1012.2
20260504022721 11 205 3.2 4.8 0.00 0.00 0.00 83 1012.1
20260504021638 11 215 3.2 4.8 0.00 0.00 0.00 82 1012.2
20260504020938 11 225 3.2 4.8 0.00 0.00 0.00 82 1012.3
20260504020238 11 215 3.2 6.4 0.00 0.00 0.00 82 1012.4
20260504015538 11 230 3.2 8.0 0.00 0.00 0.00 81 1012.3
20260504014838 12 282 3.2 6.4 0.00 0.00 0.00 81 1012.4
20260504013947 12 245 3.2 6.4 0.00 0.00 0.00 81 1012.2
20260504013247 12 152 4.8 9.7 0.00 0.00 0.00 80 1012.2
20260504012548 12 240 3.2 6.4 0.00 0.00 0.00 80 1012.2
20260504011847 12 275 4.8 8.0 0.00 0.00 0.00 80 1012.2
20260504011147 12 202 3.2 6.4 0.00 0.00 0.00 80 1012.4
20260504010447 12 186 3.2 6.4 0.00 0.00 0.00 80 1012.5
20260504005747 12 170 3.2 9.7 0.00 0.00 0.00 80 1012.5
20260504005047 12 242 3.2 6.4 0.00 0.00 0.00 80 1012.5
20260504004155 12 218 4.8 8.0 0.00 0.00 0.00 80 1012.5
20260504003457 12 185 3.2 8.0 0.00 0.00 0.00 79 1012.5
20260504002604 13 276 4.8 6.4 0.00 0.00 0.00 78 1012.4
20260504001904 13 210 1.6 9.7 0.00 0.00 0.00 78 1012.4
20260504001205 12 245 4.8 8.0 0.00 0.00 0.00 79 1012.4
20260504000504 13 245 3.2 6.4 0.00 0.00 0.00 79 1012.3
20260503235804 13 262 4.8 6.4 0.00 0.00 0.00 78 1012.3
20260503235105 13 220 3.2 8.0 0.00 0.00 0.00 78 1012.2
20260503234404 13 200 6.4 14.5 0.00 0.00 0.00 77 1012.2
20260503233704 13 256 6.4 9.7 0.00 0.00 0.00 77 1012.2
20260503233004 13 170 3.2 8.0 0.00 0.00 0.00 78 1012.1
20260503232305 13 272 4.8 11.3 0.00 0.00 0.00 76 1012.2
20260503231412 14 198 3.2 9.7 0.00 0.00 0.00 75 1012.2
20260503230712 14 265 4.8 14.5 0.00 0.00 0.00 75 1012.0
20260503230011 15 236 6.4 12.9 0.00 0.00 0.00 73 1011.9
20260503225312 14 218 4.8 12.9 0.00 0.00 0.00 75 1011.9
20260503224612 15 180 4.8 11.3 0.00 0.00 0.00 73 1011.9
20260503223720 15 235 4.8 9.7 0.00 0.00 0.00 72 1011.9
20260503223020 15 240 6.4 8.0 0.00 0.00 0.00 72 1011.9
20260503222320 14 253 4.8 9.7 0.00 0.00 0.00 75 1012.0
20260503221429 14 152 3.2 6.4 0.00 0.00 0.00 76 1012.0
20260503220729 15 180 3.2 8.0 0.00 0.00 0.00 73 1012.1
20260503220033 16 160 4.8 9.7 0.00 0.00 0.00 71 1012.1
20260503215329 15 288 3.2 9.7 0.00 0.00 0.00 74 1012.1
20260503214438 16 212 3.2 8.0 0.00 0.00 0.00 72 1012.1
20260503213737 15 231 4.8 11.3 0.00 0.00 0.00 73 1011.9
20260503213038 14 225 4.8 12.9 0.00 0.00 0.00 75 1012.0
20260503212146 16 262 8.0 12.9 0.00 0.00 0.00 72 1012.0
20260503211446 15 208 6.4 14.5 0.00 0.00 0.00 73 1012.0
20260503210746 14 278 6.4 14.5 0.00 0.00 0.00 75 1012.0
20260503210046 13 217 4.8 8.0 0.00 0.00 0.00 75 1011.9
20260503205347 13 174 3.2 6.4 0.00 0.00 0.00 76 1011.9
20260503204646 13 276 3.2 6.4 0.00 0.00 0.00 77 1011.9
20260503203946 13 184 3.2 11.3 0.00 0.00 0.00 76 1011.9
20260503203246 13 278 6.4 9.7 0.00 0.00 0.00 76 1012.0
20260503202355 14 245 4.8 6.4 0.00 0.00 0.00 74 1012.1
20260503201656 13 163 3.2 6.4 0.00 0.00 0.00 76 1012.0
20260503200955 13 225 3.2 9.7 0.00 0.00 0.00 76 1012.1
20260503200255 13 259 4.8 9.7 0.00 0.00 0.00 76 1012.1
20260503195403 13 217 4.8 6.4 0.00 0.00 0.00 76 1012.1
20260503194703 13 200 3.2 6.4 0.00 0.00 0.00 75 1012.2
20260503194007 13 262 3.2 8.0 0.00 0.00 0.00 76 1012.2
20260503193304 12 160 3.2 6.4 0.00 0.00 0.00 77 1012.4
20260503192603 12 225 4.8 8.0 0.00 0.00 0.00 78 1012.3
20260503191904 12 264 3.2 8.0 0.00 0.00 0.00 78 1012.3
20260503191203 12 22 1.6 8.0 0.00 0.00 0.00 78 1012.3
20260503190313 12 264 4.8 9.7 0.00 0.00 0.00 78 1012.1
20260503185421 13 214 4.8 9.7 0.00 0.00 0.00 77 1012.2
20260503184721 13 264 3.2 6.4 0.00 0.00 0.00 75 1012.1
20260503184021 13 222 4.8 8.0 0.00 0.00 0.00 76 1012.1
20260503183321 12 183 4.8 8.0 0.00 0.00 0.00 77 1012.1
20260503182621 12 253 1.6 8.0 0.00 0.00 0.00 77 1012.1
20260503181921 12 222 4.8 8.0 0.00 0.00 0.00 78 1012.1
20260503181221 12 191 4.8 8.0 0.00 0.00 0.00 78 1012.1
20260503180330 12 228 4.8 6.4 0.00 0.00 0.00 79 1012.2
20260503175630 11 267 3.2 4.8 0.00 0.00 0.00 80 1012.2
20260503174933 11 211 3.2 6.4 0.00 0.00 0.00 80 1012.2
20260503174230 11 253 3.2 6.4 0.00 0.00 0.00 79 1012.1
20260503173530 11 248 1.6 6.4 0.00 0.00 0.00 79 1012.0
20260503172830 11 231 1.6 6.4 0.00 0.00 0.00 80 1012.0
20260503172130 11 352 3.2 4.8 0.00 0.00 0.00 82 1011.8
20260503171430 11 239 1.6 4.8 0.00 0.00 0.00 82 1011.9
20260503170537 10 154 1.6 6.4 0.00 0.00 0.00 82 1011.9
20260503150612 9 225 0.0 1.6 0.00 0.00 0.00 86 1011.2